FW9274 Weather Reports


Display with metric or nautical units.
time (UTC)temp
F
wind
direction
speed
MPH
gust
MPH
rain 1hr
in
rain 24hr
in
rain mn
in
humidity
%
barometer
mb
20260906164938 72 45 2.0 2.0 0.00 0.00 0.00 90 1019.2
20260906164436 73 199 6.0 7.0 0.00 0.00 0.00 88 1019.2
20260906163933 73 182 2.0 2.0 0.00 0.00 0.00 89 1019.2
20260906163428 72 169 2.0 2.0 0.00 0.00 0.00 90 1019.2
20260906162927 72 132 3.0 3.0 0.00 0.00 0.00 90 1019.5
20260906162425 72 206 2.0 2.0 0.00 0.00 0.00 89 1019.5
20260906161921 72 186 1.0 1.0 0.00 0.00 0.00 90 1019.5
20260906161420 72 184 4.0 8.0 0.00 0.00 0.00 90 1019.5
20260906160919 72 115 4.0 5.0 0.00 0.00 0.00 90 1019.5
20260906160413 72 194 2.0 2.0 0.00 0.00 0.00 91 1019.2
20260906155911 72 159 2.0 2.0 0.00 0.00 0.00 91 1019.5
20260906155405 72 251 1.0 1.0 0.00 0.00 0.00 90 1019.5
20260906154901 72 160 1.0 1.0 0.00 0.00 0.00 91 1019.5
20260906154355 71 163 3.0 3.0 0.00 0.00 0.00 92 1019.2
20260906153854 71 158 4.0 6.0 0.00 0.00 0.00 92 1019.5
20260906153353 71 100 2.0 3.0 0.00 0.00 0.00 93 1019.5
20260906152848 71 153 2.0 2.0 0.00 0.00 0.00 93 1019.2
20260906152343 71 148 5.0 7.0 0.00 0.00 0.00 92 1019.5
20260906151842 71 83 4.0 5.0 0.00 0.00 0.00 92 1019.5
20260906151338 71 109 2.0 2.0 0.00 0.00 0.00 92 1019.5
20260906150834 71 210 2.0 2.0 0.00 0.00 0.00 92 1019.5
20260906150329 71 160 2.0 2.0 0.00 0.00 0.00 92 1019.5
20260906145828 71 179 3.0 3.0 0.00 0.00 0.00 92 1019.2
20260906145327 72 197 3.0 3.0 0.00 0.00 0.00 91 1019.5
20260906144822 72 102 1.0 2.0 0.00 0.00 0.00 91 1019.2
20260906144317 72 98 3.0 3.0 0.00 0.00 0.00 91 1019.5
20260906143816 73 169 3.0 5.0 0.00 0.00 0.00 90 1019.5
20260906143313 73 105 1.0 2.0 0.00 0.00 0.00 91 1019.2
20260906142809 72 182 2.0 2.0 0.00 0.00 0.00 92 1019.2
20260906142306 73 194 3.0 2.0 0.00 0.00 0.00 90 1019.2
20260906141803 72 198 2.0 2.0 0.00 0.00 0.00 91 1018.9
20260906141257 73 75 2.0 3.0 0.00 0.00 0.00 91 1019.2
20260906140756 72 119 2.0 2.0 0.00 0.00 0.00 91 1019.2
20260906140251 72 139 1.0 1.0 0.00 0.00 0.00 92 1019.2
20260906135749 72 186 1.0 1.0 0.00 0.00 0.00 93 1019.2
20260906135244 71 82 1.0 0.0 0.00 0.00 0.00 94 1019.2
20260906134740 71 73 2.0 2.0 0.00 0.00 0.00 94 1019.2
20260906134235 71 106 3.0 5.0 0.00 0.00 0.00 94 1019.2
20260906133730 70 188 1.0 1.0 0.00 0.00 0.00 95 1018.9
20260906133226 70 147 2.0 2.0 0.00 0.00 0.00 96 1019.2
20260906132721 70 140 3.0 3.0 0.00 0.00 0.00 96 1019.2
20260906132216 70 172 2.0 2.0 0.00 0.00 0.00 96 1018.9
20260906131712 69 60 1.0 1.0 0.00 0.00 0.00 97 1019.2
20260906131207 69 123 2.0 3.0 0.00 0.00 0.00 97 1018.9
20260906130702 68 105 2.0 3.0 0.00 0.00 0.00 99 1018.9
20260906130157 68 183 0.0 0.0 0.00 0.00 0.00 99 1018.9
20260906125655 68 73 2.0 2.0 0.00 0.00 0.00 99 1018.9
20260906125154 67 72 1.0 1.0 0.00 0.00 0.00 99 1018.4
20260906124649 67 148 0.0 0.0 0.00 0.00 0.00 99 1018.4
20260906124144 67 170 0.0 0.0 0.00 0.00 0.00 99 1018.4
20260906123643 67 169 1.0 0.0 0.00 0.00 0.00 99 1018.9
20260906123139 67 137 0.0 0.0 0.00 0.00 0.00 99 1019.2
20260906122638 66 135 1.0 1.0 0.00 0.00 0.00 99 1018.9
20260906122134 66 81 1.0 1.0 0.00 0.00 0.00 99 1018.4
20260906121630 66 122 1.0 1.0 0.00 0.00 0.00 99 1018.4
20260906121126 66 155 0.0 0.0 0.00 0.00 0.00 99 1018.4
20260906120622 66 155 0.0 1.0 0.00 0.00 0.00 99 1018.9
20260906120119 66 155 1.0 1.0 0.00 0.00 0.00 99 1018.4
20260906115618 66 157 1.0 1.0 0.00 0.00 0.00 99 1018.4
20260906115115 66 192 0.0 0.0 0.00 0.00 0.00 99 1018.4
20260906114613 66 135 2.0 3.0 0.00 0.00 0.00 99 1018.4
20260906114109 66 206 0.0 1.0 0.00 0.00 0.00 99 1018.4
20260906113608 66 209 1.0 1.0 0.00 0.00 0.00 99 1018.1
20260906113104 66 186 1.0 1.0 0.00 0.00 0.00 99 1018.4
20260906112603 66 186 1.0 1.0 0.00 0.00 0.00 99 1018.4
20260906112100 66 186 1.0 1.0 0.00 0.00 0.00 99 1018.4
20260906111559 66 186 1.0 1.0 0.00 0.00 0.00 99 1018.4
20260906111055 66 170 2.0 2.0 0.00 0.00 0.00 99 1018.4
20260906110554 66 84 0.0 0.0 0.00 0.00 0.00 99 1018.4
20260906110054 66 83 1.0 1.0 0.00 0.00 0.00 99 1018.4
20260906105549 67 83 1.0 0.0 0.00 0.00 0.00 99 1018.4
20260906105045 67 85 0.0 0.0 0.00 0.00 0.00 99 1018.1
20260906104543 67 96 1.0 1.0 0.00 0.00 0.00 99 1018.4
20260906104038 67 95 0.0 0.0 0.00 0.00 0.00 99 1018.1
20260906103536 67 164 1.0 1.0 0.00 0.00 0.00 99 1018.1
20260906103032 66 164 0.0 0.0 0.00 0.00 0.00 99 1018.1
20260906102531 66 166 1.0 1.0 0.00 0.00 0.00 99 1018.1
20260906102026 66 166 1.0 1.0 0.00 0.00 0.00 99 1018.1
20260906101521 67 167 0.0 0.0 0.00 0.00 0.00 99 1018.1
20260906101016 67 167 1.0 1.0 0.00 0.00 0.00 99 1018.1
20260906100512 67 167 0.0 0.0 0.00 0.00 0.00 99 1018.1
20260906100006 67 167 1.0 1.0 0.00 0.00 0.00 99 1018.1
20260906095501 67 167 0.0 0.0 0.00 0.00 0.00 99 1018.1
20260906094956 67 167 0.0 0.0 0.00 0.00 0.00 99 1018.1
20260906094455 67 168 1.0 1.0 0.00 0.00 0.00 99 1017.7
20260906093951 67 172 0.0 0.0 0.00 0.00 0.00 99 1018.1
20260906093447 68 172 1.0 0.0 0.00 0.00 0.00 99 1017.7
20260906092942 68 170 1.0 1.0 0.00 0.00 0.00 99 1017.4
20260906092442 68 170 1.0 1.0 0.00 0.00 0.00 99 1017.7
20260906091937 68 171 1.0 1.0 0.00 0.00 0.00 99 1017.7
20260906091432 68 181 0.0 0.0 0.00 0.00 0.00 99 1017.4
20260906090929 68 161 0.0 0.0 0.00 0.00 0.00 99 1017.4
20260906090424 68 167 1.0 1.0 0.00 0.00 0.00 99 1017.7
20260906085918 68 177 1.0 1.0 0.00 0.00 0.00 98 1017.7
20260906085412 68 180 1.0 1.0 0.00 0.00 0.00 98 1017.4
20260906084911 68 163 1.0 1.0 0.00 0.00 0.00 98 1017.4
20260906084406 69 89 1.0 1.0 0.00 0.00 0.00 98 1017.4
20260906083905 69 82 0.0 1.0 0.00 0.00 0.00 98 1017.1
20260906083401 69 52 1.0 1.0 0.00 0.00 0.00 98 1017.4
20260906082900 69 63 3.0 3.0 0.00 0.00 0.00 98 1017.1
20260906082355 69 61 1.0 1.0 0.00 0.00 0.00 97 1017.1
20260906081852 69 52 1.0 1.0 0.00 0.00 0.00 97 1017.1
20260906081347 69 98 1.0 1.0 0.00 0.00 0.00 97 1017.1
20260906080843 69 86 1.0 1.0 0.00 0.00 0.00 96 1017.4
20260906080339 69 119 1.0 1.0 0.00 0.00 0.00 96 1017.1
20260906075838 69 136 2.0 3.0 0.00 0.00 0.00 96 1017.1
20260906075333 70 163 0.0 0.0 0.00 0.00 0.00 96 1017.4
20260906074828 70 102 1.0 1.0 0.00 0.00 0.00 95 1017.1
20260906074328 70 76 1.0 1.0 0.00 0.00 0.00 95 1017.4
20260906073827 70 92 1.0 1.0 0.00 0.00 0.00 95 1017.1
20260906073322 70 62 1.0 2.0 0.00 0.00 0.00 95 1017.4
20260906072818 70 72 1.0 1.0 0.00 0.00 0.00 95 1017.4
20260906072314 70 14 1.0 1.0 0.00 0.00 0.00 95 1017.4
20260906071810 70 3 0.0 0.0 0.00 0.00 0.00 95 1017.4
20260906071304 70 46 2.0 2.0 0.00 0.00 0.00 95 1017.4
20260906070801 71 123 0.0 0.0 0.00 0.00 0.00 94 1017.1
20260906070256 71 145 1.0 1.0 0.00 0.00 0.00 95 1017.7
20260906065756 71 165 1.0 2.0 0.00 0.00 0.00 95 1017.7
20260906065251 71 163 1.0 1.0 0.00 0.00 0.00 95 1017.7
20260906064747 71 171 1.0 1.0 0.00 0.00 0.00 95 1017.7
20260906064243 71 84 1.0 2.0 0.00 0.00 0.00 95 1018.1
20260906063737 71 169 0.0 1.0 0.00 0.00 0.00 95 1017.7
20260906063233 71 119 0.0 0.0 0.00 0.00 0.00 95 1017.7
20260906062728 70 75 1.0 1.0 0.00 0.00 0.00 96 1017.7
20260906062227 70 168 1.0 1.0 0.00 0.00 0.00 96 1017.7
20260906061723 70 101 1.0 0.0 0.00 0.00 0.00 96 1017.7
20260906061219 71 145 1.0 1.0 0.00 0.00 0.00 95 1017.7
20260906060714 70 175 2.0 2.0 0.00 0.00 0.00 95 1017.7
20260906060212 70 140 1.0 2.0 0.00 0.00 0.00 96 1017.4
20260906055707 70 92 1.0 1.0 0.00 0.00 0.00 95 1017.7
20260906055202 71 118 0.0 0.0 0.00 0.00 0.00 95 1017.7
20260906054657 71 161 0.0 0.0 0.00 0.00 0.00 95 1017.7
20260906054152 71 161 1.0 1.0 0.00 0.00 0.00 95 1017.7
20260906053649 71 172 1.0 0.0 0.00 0.00 0.00 95 1017.4
20260906053144 71 166 1.0 1.0 0.00 0.00 0.00 95 1017.7
20260906052639 71 147 1.0 1.0 0.00 0.00 0.00 95 1018.1
20260906052136 71 169 0.0 0.0 0.00 0.00 0.00 94 1018.1
20260906051632 71 168 0.0 0.0 0.00 0.00 0.00 94 1017.7
20260906051131 71 175 1.0 1.0 0.00 0.00 0.00 94 1018.1
20260906050627 71 138 2.0 2.0 0.00 0.00 0.00 94 1017.7
20260906050122 71 153 0.0 0.0 0.00 0.00 0.00 94 1017.7
20260906045620 71 178 1.0 1.0 0.00 0.00 0.00 94 1018.1
20260906045116 71 162 0.0 0.0 0.00 0.00 0.00 94 1018.1
20260906044612 71 147 0.0 1.0 0.00 0.00 0.00 93 1018.1
20260906044107 71 163 1.0 1.0 0.00 0.00 0.00 93 1018.1
20260906043603 72 148 1.0 1.0 0.00 0.00 0.00 93 1018.1
20260906043058 72 179 0.0 0.0 0.00 0.00 0.00 93 1018.1
20260906042557 72 72 1.0 1.0 0.00 0.00 0.00 93 1018.1
20260906042052 72 90 1.0 1.0 0.00 0.00 0.00 93 1018.1
20260906041549 72 87 1.0 1.0 0.00 0.00 0.00 92 1018.1
20260906041043 72 111 1.0 1.0 0.00 0.00 0.00 92 1018.1
20260906040538 72 77 0.0 1.0 0.00 0.00 0.00 92 1018.1
20260906040034 72 74 0.0 0.0 0.00 0.00 0.00 92 1018.1
20260906035529 72 77 1.0 1.0 0.00 0.00 0.00 92 1018.1
20260906035025 72 77 0.0 0.0 0.00 0.00 0.00 92 1018.1
20260906034524 72 96 0.0 0.0 0.00 0.00 0.00 92 1018.1
20260906034019 72 99 1.0 1.0 0.00 0.00 0.00 91 1018.4
20260906033514 72 97 1.0 1.0 0.00 0.00 0.00 91 1018.1
20260906033010 72 176 1.0 1.0 0.00 0.00 0.00 91 1018.1
20260906032507 72 192 0.0 0.0 0.00 0.00 0.00 91 1018.1
20260906032006 73 192 0.0 0.0 0.00 0.00 0.00 90 1018.1
20260906031502 73 206 0.0 0.0 0.00 0.00 0.00 90 1018.1
20260906030957 73 163 2.0 3.0 0.00 0.00 0.00 90 1018.1
20260906030452 73 160 1.0 1.0 0.00 0.00 0.00 90 1018.1
20260906025952 73 157 0.0 0.0 0.00 0.00 0.00 90 1018.1
20260906025446 73 157 1.0 2.0 0.00 0.00 0.00 90 1018.1
20260906024944 73 162 1.0 1.0 0.00 0.00 0.00 90 1018.1
20260906024444 73 188 1.0 1.0 0.00 0.00 0.00 89 1018.1
20260906023939 74 189 1.0 1.0 0.00 0.00 0.00 88 1018.4
20260906023435 74 209 0.0 0.0 0.00 0.00 0.00 88 1018.1
20260906022930 74 203 1.0 1.0 0.00 0.00 0.00 88 1018.1
20260906022425 74 187 1.0 1.0 0.00 0.00 0.00 88 1018.1
20260906021920 74 197 0.0 1.0 0.00 0.00 0.00 88 1018.1
20260906021420 74 132 0.0 0.0 0.00 0.00 0.00 88 1018.1
20260906020914 74 108 0.0 0.0 0.00 0.00 0.00 88 1017.7
20260906020409 74 191 1.0 1.0 0.00 0.00 0.00 88 1017.4
20260906015903 74 230 3.0 3.0 0.00 0.00 0.00 88 1017.4
20260906015357 74 171 1.0 1.0 0.00 0.00 0.00 88 1017.1
20260906014857 74 115 2.0 2.0 0.00 0.00 0.00 87 1017.1
20260906014356 75 191 2.0 2.0 0.00 0.00 0.00 87 1016.7
20260906013853 75 223 2.0 2.0 0.00 0.00 0.00 86 1017.1
20260906013348 75 228 1.0 1.0 0.00 0.00 0.00 86 1016.7
20260906012844 75 222 3.0 5.0 0.00 0.00 0.00 85 1016.4
20260906012339 75 189 1.0 1.0 0.00 0.00 0.00 85 1016.4
20260906011838 75 159 3.0 3.0 0.00 0.00 0.00 84 1016.4
20260906011333 76 174 2.0 2.0 0.00 0.00 0.00 84 1016.4
20260906010829 76 179 4.0 5.0 0.00 0.00 0.00 83 1016.0
20260906010325 76 130 1.0 2.0 0.00 0.00 0.00 83 1016.0
20260906005821 76 207 1.0 1.0 0.00 0.00 0.00 82 1016.0
20260906005319 77 188 1.0 1.0 0.00 0.00 0.00 81 1016.0
20260906004819 77 220 2.0 3.0 0.00 0.00 0.00 81 1015.7
20260906004318 77 153 1.0 1.0 0.00 0.00 0.00 80 1015.7
20260906003813 77 174 3.0 3.0 0.00 0.00 0.00 79 1015.7
20260906003309 78 178 4.0 5.0 0.00 0.00 0.00 78 1016.0
20260906002804 78 160 3.0 3.0 0.00 0.00 0.00 78 1015.4
20260906002306 78 157 3.0 5.0 0.00 0.00 0.00 77 1015.7
20260906001800 78 186 3.0 3.0 0.00 0.00 0.00 77 1015.7
20260906001254 79 164 6.0 7.0 0.00 0.00 0.00 76 1016.0
20260906000749 79 187 2.0 3.0 0.00 0.00 0.00 74 1015.7
20260906000244 80 173 6.0 6.0 0.00 0.00 0.00 73 1015.4
20260905235739 80 224 2.0 2.0 0.00 0.00 0.00 72 1015.4
20260905235238 80 194 0.0 0.0 0.00 0.00 0.00 71 1015.7
20260905234734 80 193 1.0 1.0 0.00 0.00 0.00 71 1015.4
20260905234229 80 90 1.0 1.0 0.00 0.00 0.00 70 1015.4
20260905233725 81 168 1.0 1.0 0.00 0.00 0.00 70 1015.4
20260905233224 82 318 1.0 2.0 0.00 0.00 0.00 69 1015.7
20260905232719 83 183 2.0 2.0 0.00 0.00 0.00 68 1015.4
20260905232215 83 120 1.0 1.0 0.00 0.00 0.00 68 1015.4
20260905231710 83 172 2.0 3.0 0.00 0.00 0.00 67 1015.4
20260905231206 83 153 3.0 3.0 0.00 0.00 0.00 67 1015.4
20260905230702 83 157 2.0 3.0 0.00 0.00 0.00 68 1015.4
20260905230159 84 136 1.0 1.0 0.00 0.00 0.00 68 1015.4
20260905225659 84 163 1.0 1.0 0.00 0.00 0.00 69 1015.4
20260905225154 84 184 1.0 1.0 0.00 0.00 0.00 68 1014.9
20260905224653 84 125 2.0 2.0 0.00 0.00 0.00 66 1014.9
20260905224148 84 89 1.0 1.0 0.00 0.00 0.00 65 1014.9
20260905223645 84 81 4.0 6.0 0.00 0.00 0.00 64 1014.9
20260905223141 84 48 1.0 1.0 0.00 0.00 0.00 65 1014.9
20260905222637 84 79 2.0 2.0 0.00 0.00 0.00 65 1014.9
20260905222131 84 68 3.0 5.0 0.00 0.00 0.00 64 1014.9
20260905221627 84 30 4.0 7.0 0.00 0.00 0.00 64 1014.6
20260905221124 84 356 3.0 5.0 0.00 0.00 0.00 65 1014.6
20260905220619 84 144 2.0 3.0 0.00 0.00 0.00 65 1014.6
20260905220115 84 76 3.0 3.0 0.00 0.00 0.00 68 1014.6
20260905215614 84 134 2.0 2.0 0.00 0.00 0.00 67 1014.9
20260905215110 83 109 4.0 7.0 0.00 0.00 0.00 66 1014.9
20260905214606 84 59 3.0 3.0 0.00 0.00 0.00 65 1014.9
20260905214106 84 40 1.0 2.0 0.00 0.00 0.00 66 1014.9
20260905213601 84 189 1.0 3.0 0.00 0.00 0.00 65 1015.4
20260905213056 84 61 2.0 2.0 0.00 0.00 0.00 67 1015.4
20260905212551 84 160 1.0 3.0 0.00 0.00 0.00 67 1015.4
20260905212051 83 55 1.0 1.0 0.00 0.00 0.00 67 1015.4
20260905211546 83 121 2.0 2.0 0.00 0.00 0.00 68 1015.4
20260905211042 82 351 1.0 1.0 0.00 0.00 0.00 70 1015.4
20260905210537 82 95 3.0 5.0 0.00 0.00 0.00 68 1015.7
20260905210032 82 42 3.0 2.0 0.00 0.00 0.00 69 1015.7
20260905205531 82 31 3.0 3.0 0.00 0.00 0.00 70 1015.7
20260905205030 83 315 2.0 2.0 0.00 0.00 0.00 70 1015.7
20260905204526 82 243 3.0 6.0 0.00 0.00 0.00 71 1015.7
20260905204021 82 351 3.0 3.0 0.00 0.00 0.00 72 1015.7
20260905203521 82 329 6.0 9.0 0.00 0.00 0.00 72 1015.7
20260905203016 81 215 2.0 2.0 0.00 0.00 0.00 74 1016.0
20260905202511 80 27 2.0 2.0 0.00 0.00 0.00 74 1015.7
20260905202006 80 359 3.0 5.0 0.00 0.00 0.00 75 1015.7
20260905201502 80 308 1.0 1.0 0.00 0.00 0.00 76 1016.0
20260905201001 80 64 5.0 7.0 0.00 0.00 0.00 76 1016.4
20260905200457 79 13 4.0 6.0 0.00 0.00 0.00 78 1016.0
20260905195955 79 356 3.0 3.0 0.00 0.00 0.00 78 1016.4
20260905195451 79 111 3.0 3.0 0.00 0.00 0.00 80 1016.4
20260905194946 79 302 1.0 1.0 0.00 0.00 0.00 81 1016.7
20260905194446 78 12 2.0 2.0 0.00 0.00 0.00 82 1016.4
20260905193940 78 321 1.0 2.0 0.00 0.00 0.00 82 1016.4
20260905193435 79 65 6.0 7.0 0.00 0.00 0.00 82 1016.7
20260905192930 79 90 1.0 1.0 0.00 0.00 0.00 82 1016.4
20260905192425 78 331 4.0 5.0 0.00 0.00 0.00 84 1016.7
20260905191920 78 60 1.0 2.0 0.00 0.00 0.00 84 1016.7
20260905191419 77 54 6.0 7.0 0.00 0.00 0.00 84 1016.7
20260905190914 77 12 1.0 2.0 0.00 0.00 0.00 84 1017.1
20260905190411 77 89 1.0 2.0 0.00 0.00 0.00 85 1017.1
20260905185910 76 72 1.0 2.0 0.00 0.00 0.00 86 1017.1
20260905185406 77 84 2.0 2.0 0.00 0.00 0.00 85 1017.4
20260905184904 76 136 1.0 1.0 0.00 0.00 0.00 85 1017.4
20260905184359 76 135 2.0 2.0 0.00 0.00 0.00 86 1017.4
20260905183857 76 48 1.0 1.0 0.00 0.00 0.00 85 1017.4
20260905183352 76 230 0.0 0.0 0.00 0.00 0.00 86 1017.1
20260905182847 76 209 3.0 3.0 0.00 0.00 0.00 86 1017.4
20260905182341 77 174 5.0 7.0 0.00 0.00 0.00 84 1017.4
20260905181837 77 184 1.0 2.0 0.00 0.00 0.00 85 1017.7
20260905181336 76 226 3.0 5.0 0.00 0.00 0.00 85 1017.7
20260905180836 77 90 2.0 2.0 0.00 0.00 0.00 84 1017.7
20260905180331 77 295 1.0 1.0 0.00 0.00 0.00 83 1017.7
20260905175826 77 288 1.0 1.0 0.00 0.00 0.00 85 1017.7
20260905175326 75 177 0.0 1.0 0.00 0.00 0.00 88 1017.7
20260905174821 75 35 1.0 1.0 0.00 0.00 0.00 86 1017.7
20260905174317 75 195 1.0 2.0 0.00 0.00 0.00 87 1018.1
20260905173812 74 29 2.0 1.0 0.00 0.00 0.00 90 1017.7
20260905173308 73 206 1.0 2.0 0.00 0.00 0.00 91 1018.1
20260905172808 74 85 2.0 3.0 0.00 0.00 0.00 90 1018.1
20260905172306 73 220 0.0 0.0 0.00 0.00 0.00 91 1018.1
20260905171803 73 201 2.0 2.0 0.00 0.00 0.00 91 1018.1
20260905171259 73 219 1.0 1.0 0.00 0.00 0.00 91 1018.1
20260905170755 72 60 3.0 3.0 0.00 0.00 0.00 93 1018.1
20260905170251 71 236 2.0 2.0 0.00 0.00 0.00 96 1018.4
20260905165749 70 168 1.0 1.0 0.00 0.00 0.00 96 1018.4